Terug naar catalogus

STARLINK-4768

ActiefCommunicatieVLEO
NORAD 53806·PAYLOAD·🇺🇸 United States

Gelanceerd Sep 11, 2022 vanaf Cape Canaveral Space Force Station

Loading…

Volgende Passages (komende 24 uur)

TLE

VersSource: CelesTrak SupGP

Epoch: Sep 15, 2026, 01:21 UTC

1 53806C 22111AK  26258.05673611  .00029099  00000+0  83251-3 0  2589
2 53806  53.1584 111.4787 0001254  80.7715 268.1227 15.35385100    19

Volg STARLINK-4768 in realtime met AllMySat

Download on the App Store